Wind_Speed
1 3 4 6 8 8 3 3 5 7 7 6 6 8 8 8 9 8 7 7 5 3 3 3 5 5 6 7 8 7 7 8 9 9 10 11 12 13 15 16 19 23 24 23 21
4 4 4 3 4 6 7 7 8 10 11 9 3 3 6 7 7 8 7 7 5 4 4 4 5 6 7 6 7 7 7 6 7 9 11 13 14 15 16 19 22 24 24 25 26
7 7 6 5 3 1 3 6 7 10 13 15 4 1 4 7 7 8 7 6 6 6 6 5 5 6 6 6 7 7 7 6 6 6 7 9 10 10 11 16 18 23 26 27 30
8 8 8 7 6 3 3 3 5 8 11 14 12 3 4 6 7 8 8 7 6 7 6 5 6 6 6 6 7 8 9 7 7 6 4 4 5 7 13 14 16 21 24 25 27
7 9 9 9 8 5 6 5 5 5 7 10 13 10 6 7 8 7 7 8 7 7 6 5 5 5 6 7 8 9 11 9 6 6 6 7 7 9 10 10 16 16 15 21 26
7 7 8 10 10 8 7 8 7 5 4 6 8 10 8 8 9 8 8 8 7 6 6 6 6 6 6 7 8 9 10 11 7 7 7 7 8 9 7 10 12 11 9 17 24
7 7 8 9 11 11 11 10 8 5 5 5 5 6 8 8 9 9 9 8 8 7 6 7 7 7 8 8 9 9 8 8 8 8 7 7 6 7 9 10 12 11 11 18 21
7 8 7 8 11 12 12 12 11 9 7 6 5 7 7 8 9 12 11 10 9 8 8 8 9 9 8 9 9 9 9 9 8 7 6 6 5 9 10 9 11 11 13 19 21
5 5 6 6 6 8 9 10 10 11 10 7 8 8 10 11 10 13 15 14 12 10 9 9 9 9 9 9 9 10 10 10 11 9 8 8 7 9 11 10 8 10 14 19 21
4 5 5 5 6 8 9 9 9 9 10 10 10 12 13 14 14 14 16 15 15 13 12 10 10 9 8 8 8 9 10 10 11 12 12 11 11 9 10 12 10 10 17 20 21
4 5 5 5 6 8 9 11 11 10 11 12 13 14 17 17 17 17 16 16 16 16 14 13 11 10 9 9 9 9 10 11 11 13 13 13 13 13 12 12 12 10 17 23 22
7 8 9 9 10 10 10 12 12 12 14 15 17 19 20 20 20 19 18 17 17 18 16 14 13 12 12 11 11 11 12 12 13 15 15 15 14 15 17 16 14 13 12 22 27
11 11 12 12 13 15 15 16 18 19 20 22 23 24 23 22 21 20 19 19 18 18 18 16 16 15 14 15 15 14 15 15 15 16 17 17 16 16 18 18 17 16 16 15 25
13 14 15 15 16 18 19 20 21 22 21 23 23 23 22 21 19 19 18 18 17 18 18 18 19 20 20 20 20 19 19 19 19 19 20 21 20 19 19 19 19 20 18 18 17
14 16 16 17 18 18 19 20 21 22 23 23 23 22 21 19 19 19 19 19 19 19 19 20 21 22 23 23 24 25 25 24 24 25 25 26 27 24 23 22 22 21 20 21 20
16 17 19 19 19 19 20 21 21 21 21 22 23 22 23 23 23 23 23 23 23 23 23 24 25 26 26 26 27 28 29 30 31 30 30 29 30 29 29 27 24 23 23 21 22
18 19 17 15 14 14 16 16 17 16 18 17 19 19 19 20 21 22 23 23 23 24 24 26 26 27 28 29 29 30 31 32 34 32 31 31 32 30 28 29 28 25 25 24 22
18 16 14 15 14 14 14 17 18 19 19 20 20 19 20 20 20 21 22 24 25 26 27 28 28 28 29 29 30 29 29 30 33 32 32 30 31 31 30 29 29 29 26 26 26
19 15 13 12 13 15 18 19 22 24 24 24 25 26 25 24 24 24 25 26 28 29 29 30 30 30 30 30 30 28 28 29 31 32 33 34 32 32 30 30 31 31 31 30 30
22 19 15 16 17 18 20 23 26 27 27 26 26 25 22 22 23 24 26 28 30 30 32 31 31 29 30 30 30 30 30 30 30 33 35 36 35 35 32 31 32 33 33 33 32
20 21 21 21 21 21 24 24 25 26 25 25 27 26 26 26 27 27 28 29 29 30 30 30 30 29 29 30 29 29 30 30 31 33 35 37 38 37 36 35 34 35 36 36 36
22 23 25 24 24 25 24 24 25 25 25 26 25 27 29 29 29 29 29 29 30 29 29 28 29 26 27 28 29 29 30 31 33 34 36 37 39 39 39 39 40 39 39 40 40
25 25 27 26 27 28 29 28 29 29 28 28 29 30 30 30 31 30 30 30 30 31 31 31 31 32 33 33 33 34 34 36 37 38 39 40 41 40 41 41 43 43 43 43 43
29 28 28 29 31 32 32 32 33 32 31 31 32 32 32 32 32 33 33 33 33 33 32 33 33 34 36 38 40 40 41 41 41 41 39 40 40 42 44 44 45 46 47 47 47
30 30 30 30 32 34 35 35 34 33 34 34 33 33 33 33 34 35 37 37 35 35 36 37 38 39 41 43 43 43 43 42 42 42 44 43 41 43 45 47 48 49 49 50 51
33 32 31 32 34 35 36 36 36 35 34 33 32 33 34 35 36 36 36 36 37 38 39 40 42 43 42 42 42 41 42 42 41 40 41 43 45 45 46 47 49 51 52 53 53
35 36 34 34 36 40 40 37 34 33 33 33 34 34 35 35 36 36 36 36 37 38 40 40 39 39 40 40 40 42 42 44 46 47 47 46 45 46 47 49 51 53 52 53 53
Wind_Direction
297 317 341 2 24 38 18 341 346 357 351 344 21 25 27 32 39 40 39 42 44 44 26 340 313 320 339 348 344 334 308 283 267 250 242 240 246 253 258 260 258 258 259 260 256
241 251 272 298 13 46 56 53 42 33 21 359 328 16 22 24 32 33 31 34 31 29 24 12 6 20 7 353 344 330 313 302 288 273 261 257 260 262 266 264 264 264 263 258 254
241 236 243 268 284 23 27 33 36 31 27 22 19 355 16 19 25 22 19 19 19 21 28 20 20 26 25 12 356 347 336 329 316 306 286 274 267 269 269 268 270 271 265 250 241
238 240 239 249 254 271 304 346 9 21 26 27 30 29 5 5 5 10 10 7 9 9 11 14 14 13 10 6 7 13 9 352 336 331 314 288 298 293 274 291 292 282 272 253 234
239 242 242 249 258 260 262 280 312 345 11 23 30 28 17 2 353 359 354 355 357 359 1 355 356 352 349 350 354 3 11 13 7 1 340 327 322 304 314 305 300 281 272 256 224
219 237 238 245 255 263 263 266 274 297 327 352 17 25 22 14 9 0 348 346 345 340 340 345 346 338 340 338 340 352 6 15 17 5 346 330 331 326 326 319 309 289 255 243 223
243 249 248 247 258 266 267 265 262 273 294 315 332 341 359 355 354 350 347 344 333 332 328 319 318 327 332 335 332 334 347 358 10 14 10 359 340 315 314 296 306 279 238 219 216
269 259 269 270 264 263 263 262 265 259 272 290 302 300 312 321 327 330 335 337 332 327 325 317 314 316 318 322 326 331 334 335 342 359 4 4 351 314 315 311 304 276 228 211 213
273 284 280 274 261 262 264 262 267 258 258 264 281 289 296 306 311 313 316 322 324 320 320 315 311 313 317 318 323 328 331 336 328 332 336 341 351 328 321 314 297 261 221 214 218
256 268 270 265 263 266 272 271 261 254 260 263 274 280 296 300 301 299 306 309 311 312 310 309 307 306 310 314 321 330 343 348 333 332 329 328 325 318 316 316 307 265 227 222 225
265 262 268 270 269 267 269 269 264 261 261 267 275 283 289 295 297 297 297 301 302 302 304 303 297 296 299 306 310 316 326 331 338 341 339 329 313 305 298 296 300 294 241 233 233
264 268 267 270 277 277 277 275 271 269 275 277 282 287 289 292 291 291 287 290 292 291 291 290 285 284 288 295 298 303 308 316 324 328 329 330 323 307 297 293 287 284 274 239 238
272 268 271 274 277 277 274 276 277 277 280 282 284 286 287 287 286 286 285 284 285 285 285 284 282 280 280 283 286 290 296 301 306 310 313 315 317 316 310 302 293 286 272 260 239
281 280 281 280 281 280 276 276 277 279 282 282 283 283 285 283 282 280 280 281 281 282 283 284 283 283 285 285 285 286 287 292 296 297 300 303 304 310 309 309 302 288 277 268 251
288 289 286 287 285 284 285 286 286 286 286 287 286 286 283 281 281 279 278 276 278 280 280 281 282 283 283 284 286 287 287 288 290 293 295 297 297 302 302 302 302 299 287 276 266
295 296 295 292 292 292 291 289 288 289 289 285 282 281 282 281 281 280 279 278 278 277 277 277 278 279 280 281 282 284 285 286 287 289 289 290 292 294 297 297 296 295 295 289 277
294 294 293 295 299 302 303 302 303 302 296 290 285 283 282 283 283 282 279 278 278 277 277 276 277 279 280 281 282 283 285 287 286 287 289 289 287 288 290 290 293 291 289 288 284
288 284 286 294 302 304 304 306 304 298 295 290 288 285 283 282 282 283 284 285 283 281 279 279 279 278 279 280 282 285 287 288 289 291 291 289 288 290 289 288 286 287 285 282 281
286 272 280 288 296 299 300 301 304 302 297 292 287 284 284 285 289 290 287 287 285 283 281 281 280 280 280 281 282 284 286 287 288 288 288 290 292 289 289 287 286 283 281 279 277
283 270 270 276 284 290 295 300 301 298 295 292 289 283 280 279 281 282 283 283 281 281 280 280 281 282 282 282 283 286 287 288 287 286 286 286 287 288 288 284 282 281 279 280 280
275 265 270 275 284 287 292 294 298 296 293 289 284 280 277 277 279 281 286 287 287 285 285 284 283 283 282 282 284 285 285 286 286 287 287 286 286 286 286 285 282 280 279 278 275
268 264 270 276 281 284 287 291 295 297 292 289 279 274 275 278 282 286 288 288 288 288 288 287 287 286 284 287 288 288 287 287 287 287 286 286 287 287 287 285 282 280 277 276 275
269 268 271 274 276 283 285 288 291 293 290 285 282 280 279 280 282 285 287 288 289 289 289 288 288 290 291 291 291 289 289 288 286 285 284 284 287 286 283 282 280 278 276 274 272
270 269 272 275 276 280 283 284 287 289 286 283 280 278 279 280 281 284 285 286 286 287 288 289 290 291 292 292 291 294 293 291 288 286 286 285 285 281 280 278 277 275 274 273 272
275 273 273 276 278 280 282 285 288 286 284 282 281 280 279 280 281 284 285 286 286 287 288 288 288 289 290 290 290 290 290 290 291 292 292 289 284 281 280 278 275 272 271 269 269
275 274 272 277 281 286 290 288 289 286 284 281 282 282 281 282 283 285 285 285 286 286 287 288 288 288 289 291 291 292 292 293 293 292 290 288 286 283 280 276 274 272 271 271 270
279 279 279 280 291 296 292 287 284 282 281 280 281 282 283 284 284 284 284 285 286 288 289 290 291 292 292 292 293 294 296 294 292 290 288 287 284 283 280 278 276 275 273 270 269
Height
5863 5864 5864 5865 5865 5865 5864 5865 5864 5863 5862 5861 5859 5859 5859 5858 5857 5856 5855 5855 5854 5853 5853 5854 5854 5853 5851 5850 5849 5848 5849 5849 5850 5851 5852 5854 5854 5855 5856 5857 5857 5856 5857 5858 5858
5863 5864 5865 5866 5866 5865 5865 5864 5863 5862 5861 5859 5860 5860 5860 5859 5857 5856 5856 5855 5854 5854 5854 5853 5853 5851 5850 5850 5849 5848 5848 5847 5847 5849 5850 5851 5852 5854 5854 5854 5853 5852 5853 5853 5853
5863 5864 5865 5865 5866 5865 5864 5863 5862 5862 5861 5860 5859 5859 5859 5858 5858 5857 5856 5855 5855 5854 5853 5853 5851 5851 5850 5850 5849 5848 5847 5846 5845 5846 5847 5848 5849 5849 5849 5849 5849 5847 5847 5847 5847
5862 5863 5863 5864 5864 5863 5863 5863 5863 5862 5862 5861 5859 5859 5858 5858 5859 5857 5856 5855 5854 5854 5853 5852 5851 5850 5850 5850 5849 5848 5846 5845 5843 5843 5844 5845 5846 5846 5845 5846 5845 5843 5841 5841 5842
5859 5860 5861 5862 5862 5862 5862 5863 5862 5862 5862 5861 5860 5859 5858 5858 5858 5857 5856 5855 5854 5853 5853 5852 5851 5850 5850 5850 5849 5848 5846 5845 5843 5842 5842 5842 5842 5842 5842 5842 5839 5837 5836 5838 5838
5857 5858 5859 5860 5860 5861 5861 5861 5861 5861 5861 5861 5860 5859 5859 5858 5857 5856 5855 5854 5854 5853 5852 5851 5850 5850 5849 5849 5848 5847 5846 5844 5843 5842 5841 5840 5839 5839 5838 5836 5835 5833 5833 5836 5837
5855 5856 5857 5857 5858 5858 5859 5859 5860 5860 5860 5860 5860 5859 5858 5858 5856 5856 5855 5854 5853 5851 5851 5850 5849 5849 5848 5847 5847 5846 5846 5844 5843 5842 5841 5839 5839 5836 5835 5833 5831 5831 5832 5833 5836
5853 5854 5854 5855 5856 5856 5857 5857 5858 5858 5859 5859 5858 5858 5857 5856 5856 5855 5854 5853 5852 5851 5850 5849 5848 5848 5847 5846 5845 5845 5844 5844 5842 5841 5840 5839 5837 5835 5834 5832 5830 5830 5830 5832 5835
5851 5852 5852 5853 5853 5854 5854 5855 5855 5856 5856 5857 5857 5857 5857 5856 5855 5854 5853 5852 5851 5850 5849 5848 5847 5846 5846 5845 5844 5843 5843 5842 5841 5839 5838 5837 5836 5834 5833 5831 5830 5828 5829 5831 5833
5849 5850 5851 5851 5851 5852 5852 5852 5853 5853 5854 5854 5854 5856 5854 5854 5853 5852 5851 5850 5849 5848 5847 5846 5845 5845 5844 5844 5843 5842 5841 5840 5838 5838 5836 5835 5834 5833 5831 5830 5829 5828 5828 5829 5831
5847 5848 5849 5849 5849 5849 5850 5851 5852 5852 5851 5851 5852 5851 5851 5851 5850 5849 5848 5848 5847 5846 5845 5844 5844 5843 5843 5842 5842 5841 5840 5839 5838 5836 5835 5833 5832 5831 5830 5828 5827 5826 5826 5827 5828
5845 5845 5846 5847 5848 5848 5848 5848 5849 5849 5849 5848 5848 5848 5848 5847 5847 5846 5845 5845 5844 5842 5841 5842 5841 5840 5839 5839 5839 5838 5838 5837 5836 5834 5834 5832 5831 5829 5827 5826 5825 5824 5823 5824 5825
5844 5844 5844 5844 5844 5845 5845 5845 5845 5845 5846 5845 5845 5844 5843 5843 5842 5841 5841 5840 5839 5839 5838 5838 5838 5837 5836 5835 5835 5835 5834 5833 5833 5832 5831 5830 5830 5827 5825 5824 5823 5821 5821 5820 5820
5842 5842 5841 5841 5843 5841 5841 5841 5841 5840 5841 5841 5839 5838 5838 5837 5837 5836 5835 5836 5835 5834 5834 5835 5834 5833 5833 5833 5832 5831 5830 5829 5828 5828 5827 5826 5826 5824 5823 5821 5820 5818 5818 5817 5817
5839 5840 5839 5838 5838 5837 5838 5837 5836 5836 5836 5837 5835 5834 5832 5833 5833 5832 5831 5830 5831 5831 5831 5830 5829 5828 5828 5828 5828 5828 5826 5825 5824 5823 5823 5822 5820 5820 5818 5817 5816 5814 5813 5813 5813
5836 5835 5835 5834 5834 5833 5833 5832 5832 5833 5831 5831 5829 5829 5829 5828 5828 5827 5827 5827 5826 5826 5825 5825 5823 5822 5822 5821 5821 5821 5820 5819 5818 5817 5816 5816 5815 5815 5813 5812 5811 5809 5809 5808 5807
5831 5830 5830 5830 5829 5829 5829 5828 5829 5827 5827 5826 5825 5824 5823 5823 5823 5822 5821 5821 5821 5820 5819 5818 5818 5817 5816 5815 5814 5813 5813 5812 5811 5810 5810 5808 5807 5807 5806 5805 5804 5804 5803 5802 5802
5827 5826 5827 5827 5827 5826 5826 5826 5825 5823 5822 5821 5820 5820 5819 5818 5817 5817 5816 5816 5815 5814 5813 5812 5812 5810 5809 5808 5807 5806 5806 5805 5802 5802 5801 5800 5800 5800 5799 5798 5797 5796 5796 5796 5796
5823 5823 5822 5822 5822 5822 5822 5821 5820 5820 5818 5816 5815 5814 5814 5813 5813 5811 5810 5810 5809 5808 5807 5805 5804 5802 5801 5800 5800 5799 5799 5798 5796 5795 5793 5792 5793 5792 5792 5791 5790 5789 5788 5788 5788
5819 5818 5817 5817 5816 5816 5817 5816 5814 5812 5811 5810 5809 5808 5806 5805 5805 5804 5802 5802 5801 5800 5798 5798 5796 5795 5793 5793 5792 5791 5791 5790 5788 5786 5785 5784 5784 5783 5783 5783 5782 5781 5780 5780 5779
5813 5813 5813 5812 5812 5811 5811 5809 5807 5806 5804 5803 5802 5801 5800 5798 5797 5796 5795 5794 5793 5791 5790 5789 5789 5788 5786 5785 5783 5782 5781 5780 5779 5778 5776 5774 5774 5774 5774 5774 5773 5772 5771 5770 5769
5805 5807 5806 5806 5807 5805 5804 5802 5801 5798 5797 5796 5793 5792 5792 5791 5790 5789 5787 5785 5784 5783 5782 5781 5779 5779 5778 5776 5775 5774 5772 5771 5769 5769 5767 5765 5766 5764 5764 5764 5763 5761 5761 5760 5760
5799 5799 5799 5799 5799 5798 5796 5795 5793 5791 5789 5788 5787 5786 5785 5783 5782 5781 5780 5778 5777 5775 5773 5772 5771 5770 5768 5768 5766 5764 5763 5761 5760 5758 5758 5756 5755 5753 5752 5752 5750 5749 5748 5748 5747
5792 5791 5790 5790 5790 5789 5787 5786 5785 5783 5782 5780 5779 5777 5776 5775 5773 5772 5771 5770 5768 5767 5765 5763 5762 5760 5759 5757 5755 5754 5751 5750 5748 5747 5747 5746 5744 5742 5740 5739 5738 5737 5736 5735 5734
5784 5783 5782 5781 5781 5779 5778 5777 5775 5774 5773 5772 5770 5769 5768 5767 5765 5764 5762 5761 5759 5757 5756 5754 5753 5751 5748 5746 5745 5744 5741 5739 5736 5733 5731 5732 5731 5729 5727 5725 5724 5722 5721 5720 5720
5777 5775 5773 5772 5771 5771 5769 5768 5767 5765 5764 5763 5762 5760 5759 5757 5756 5754 5752 5751 5750 5749 5747 5745 5742 5740 5739 5735 5733 5732 5730 5728 5724 5722 5720 5718 5716 5715 5713 5711 5708 5706 5706 5705 5705
5767 5766 5764 5763 5762 5761 5759 5757 5757 5756 5756 5754 5753 5751 5749 5748 5746 5745 5743 5741 5740 5738 5735 5733 5731 5729 5727 5725 5723 5722 5720 5716 5713 5710 5707 5705 5703 5700 5699 5696 5693 5690 5689 5688 5688